Regional Weather Roundup
Issued by NWS Sioux Falls, SD

Home | Current Version | Previous Version | Graphics & Text | Print | Product List | Glossary Off
Versions: 1 2 3 4 5 6 7 8 9 10 11 12 13 14 15 16 17 18 19 20 21 22 23 24 25 26 27 28 29 30 31 32 33 34 35 36 37 38 39 40 41 42 43 44 45 46 47 48 49 50

000
ASUS43 KFSD 292102
RWRFSD

WEATHER ROUNDUP FOR SE SOUTH DAKOTA/SW MINNESOTA/NW IOWA
NATIONAL WEATHER SERVICE SIOUX FALLS SD
400 PM CDT WED JUL 29 2015

NOTE: "FAIR" INDICATES FEW OR NO CLOUDS BELOW 12,000 FEET WITH NO
SIGNIFICANT WEATHER AND OR OBSTRUCTIONS TO VISIBILITY.


SDZ038>040-050-052>070-292200-
SOUTHEAST SOUTH DAKOTA

CITY           SKY/WX    TMP DP  RH WIND       PRES   REMARKS
BROOKINGS      SUNNY     81  52  36 W25G31    30.08S
CHAMBERLAIN    NOT AVBL
HURON          SUNNY     85  48  27 W21G26    30.06F
MADISON        FAIR      81  50  34 NW21G30   30.09F
MITCHELL       SUNNY     86  47  25 NW16G26   30.09F
SIOUX FALLS    MOSUNNY   82  52  35 NW14G24   30.09F
WINNER         FAIR      88  42  20 W15G29    30.16F
YANKTON        SUNNY     84  50  30 W14G22    30.11F
$$

MNZ071-072-080-081-089-090-097-098-292200-
SOUTHWEST MINNESOTA

CITY           SKY/WX    TMP DP  RH WIND       PRES   REMARKS
FAIRMONT       SUNNY     82  52  34 W20G30    30.05S
JACKSON        SUNNY     81  55  41 W24G30    30.08S
LUVERNE        SUNNY     82  54  36 W15G24    30.10F
MARSHALL       SUNNY     82  48  30 W28G39    30.04F
MONTEVIDEO     SUNNY     82  54  36 NW12G24   30.02S
PIPESTONE      SUNNY     81  48  32 NW18G31   30.09S
REDWOOD FALLS  SUNNY     84  53  34 W20G35    30.01S
TRACY          SUNNY     81  52  36 W14G31    30.05S
WINDOM         SUNNY     82  52  34 W22G31    30.06S
WORTHINGTON    SUNNY     81  55  41 W22       30.09S
$$

IAZ001>003-012>014-020>022-031-032-NEZ013-014-SDZ071-292200-
NORTHWEST IOWA

CITY           SKY/WX    TMP DP  RH WIND       PRES   REMARKS
DENISON        SUNNY     81  59  47 W9        30.12F
ESTHERVILLE    SUNNY     79  54  41 W20G30    30.08S
SIOUX CITY     SUNNY     84  58  40 W9        30.12F
SPENCER        SUNNY     83  52  34 W23G29    30.10F
$$

ABBREVIATIONS USED IN REMARKS
   TC - TEMPERATURE IN CELSIUS
  WCI - WIND CHILL INDEX
   HX - HEAT INDEX
  VSB - VISIBILITY




USA.gov is the U.S. government's official web portal to all federal, state and local government web resources and services.